This is the latest recevied weather packets stored in our database for station/object KE5YIM-13. If no packets are shown the sender has not sent any weather packets the latest 10 day(s).
| Time | Temp. | Humidity | Pressure | Rain* | Wind** | Luminosity | Snow |
|---|---|---|---|---|---|---|---|
| 1777806410 | 5.56° C | 68% | 1011 hPa | 0 mm | - | 64 W/m² | - |
| 1777806108 | 5.56° C | 68% | 1010.7 hPa | 0 mm | - | 60 W/m² | - |
| 1777805804 | 5.56° C | 69% | 1010.7 hPa | 0 mm | - | 53 W/m² | - |
| 1777805501 | 5.56° C | 68% | 1010.7 hPa | 0 mm | - | 46 W/m² | - |
| 1777805199 | 5.56° C | 68% | 1010.7 hPa | 0 mm | - | 42 W/m² | - |
| 1777804897 | 5.56° C | 69% | 1010.6 hPa | 0 mm | - | 39 W/m² | - |
| 1777804594 | 5.56° C | 69% | 1010.4 hPa | 0 mm | - | 33 W/m² | - |
| 1777804292 | 5.56° C | 68% | 1010.5 hPa | 0 mm | - | 27 W/m² | - |
| 1777803989 | 5.56° C | 69% | 1010.4 hPa | 0 mm | - | 22 W/m² | - |
| 1777803685 | 5.56° C | 68% | 1010.5 hPa | 0 mm | - | 19 W/m² | - |
| 1777803381 | 5.56° C | 67% | 1010.5 hPa | 0 mm | - | 15 W/m² | - |
| 1777803079 | 5.56° C | 68% | 1010.6 hPa | 0 mm | - | 12 W/m² | - |
| 1777802776 | 5° C | 69% | 1010.4 hPa | 0 mm | - | 9 W/m² | - |
| 1777802474 | 5° C | 68% | 1010.4 hPa | 0 mm | - | 7 W/m² | - |
| 1777802172 | 5° C | 68% | 1010.4 hPa | 0 mm | - | 5 W/m² | - |
| 1777801870 | 5° C | 68% | 1010.2 hPa | 0 mm | - | 4 W/m² | - |
| 1777801566 | 5° C | 68% | 1010.2 hPa | 0 mm | - | 2 W/m² | - |
| 1777801263 | 5° C | 67% | 1010.2 hPa | 0 mm | - | 1 W/m² | - |
| 1777800959 | 5° C | 67% | 1010.2 hPa | 0 mm | - | 1 W/m² | - |
| 1777800657 | 5° C | 66% | 1010.3 hPa | 0 mm | - | 0 W/m² | - |
| 1777800352 | 5° C | 66% | 1010.4 hPa | 0 mm | - | 0 W/m² | - |
| 1777800049 | 5.56° C | 66% | 1010.4 hPa | 0 mm | - | 0 W/m² | - |
| 1777799744 | 5.56° C | 66% | 1010.5 hPa | 0 mm | - | 0 W/m² | - |
| 1777799442 | 5.56° C | 65% | 1010.6 hPa | 0 mm | - | 0 W/m² | - |
| 1777799137 | 5.56° C | 65% | 1010.5 hPa | 0 mm | - | 0 W/m² | - |
* Rain latest hour (hover to see other rain measurements)
** Current wind speed in m/s (hover to see current wind gust speed)